Location: Kaiser
(34.0939°N, 117.4889°W)
Time: 21:19:06
(UTC+00:00)

ERS-2 - Pass Details

Date: 29 October 2020
Orbit: 493 x 498 km, 98.6° (Epoch: 25 November)

Event Time Altitude Azimuth Distance (km) Brightness Sun altitude
Rises 12:02:40 0° 148° (SSE) 2,564 6.1 -26.3°
Reaches altitude 10° 12:04:51 10° 139° (SE) 1,685 5.3 -25.9°
Maximum altitude 12:08:10 35° 73° (ENE) 812 3.6 -25.2°
Enters shadow 12:10:35 16° 14° (NNE) 1,349 4.4 -24.7°
